STARLINK-32471, 61968

Orbit data source: Space-Track

STARLINK-32471, 61968 is a payload satellite owned by SpaceX/Seattle (US) in LEO that was launched on Thu, 14 Nov 2024 UTC via an FALCON 9 launch vehicle from the Air Force Eastern Test Range (AFETR). Payload-class satellites include a variety of spacecraft equipped with specific instruments for various scientific and technological missions. These include communications satellites like Starlink; space stations such as the ISS; scientific satellites like the Hubble; Earth observation satellites from companies like Planet Labs, Umbra, and HawkEye 360; GPS; miniature CubeSats for education and research; and military/defense satellites.

Loading next visibility...
Identifier
61968, 2024-210K
Orbit
LEO
Country
Flag of USUS
Related business
Manufacturer
SpaceX/Seattle
Mission
Operational Commercial Communications
Bus & Motor
STARLINK V2M, Unknown motor
Mass
730 kg wet, ~700 kg dry
Launch date (UTC)
2024-11-14 (2 years ago)
Launch vehicle
FALCON 9
Launch site
Air Force Eastern Test Range (AFETR)
Object type
Payload
Rocket body
Debris
Shape & HBR
Box + 2 Pan, 17.7 m
Radar Cross Section
33.884 m², Large (>1 m²)

Expand to show TLE details & history
Last TLE update: 10 hours ago

TLE from 10 hours ago
0 STARLINK-32471
1 61968U 24210K   26171.41661830  .00024538  00000-0  89771-3 0  9992
2 61968  43.0013 312.5100 0000963 205.8841 154.1962 15.27600404 90715
Epoch: 2026-06-20T09:59Z
TLE epoch observation values (Epoch: 2026-06-20T09:59:55.821Z)
Latitude
-0.00004°
Longitude
-106.10419°
Altitude
483.358 km
Speed
7.625 km/s
True Right ascension
20h 50m 02s
True Declination
0° 00' 00"
Sunlit
Object was in full shadow at epoch
Visualization orbit readout
Latitude
Unknown
Longitude
Unknown
Altitude
Unknown
Speed
Unknown
Apparent Right ascension
Unknown
Apparent Declination
Unknown
Sunlit
N/A
Visualization observer readout
Local Sidereal Time
07:12:38
Azimuth
Unknown
Elevation
Unknown
Doppler factor
Unknown
Orbital elements
Apogee altitude
485.594 km
Perigee altitude
484.272 km
Semi-major axis
6,863.07 km
Eccentricity
0.0001
Inclination
43.0013°
RAAN
312.51°
Arg. of periapsis
205.8841°
True anomaly
154.201°
Mean anomaly
154.1962°
Eccentric anomaly
154.1986°
Mean motion
3.81738 °/min
Orbital period
94.31 mins
BSTAR
0.00089771
Loading maneuver chart data...
Computing Atmospheric mass density...
Loading historical data...
Loading historical data...
Loading historical data...
Loading historical data...
Loading historical data...
Loading historical data...
Loading historical data...

Documentation

Showing up to 5 results
|